Flag for U.S.A. Weather past 2 weeks in Boise, Idaho, U.S.A.

Now
91 °F

Sunny.


Feels Like: 87 °F
Forecast: 66 / 96 °F
Wind: 10 mph from West

Location: Boise Air Terminal

Current Time: Jul 6, 2015 at 6:38:30 PM

Latest Report: Jul 6, 2015 at 5:53 PM


Visibility: 10 mi

Pressure: 29.86 "Hg (27.24 "Hg at 822m altitude)

Humidity: 19%

Dew point: 43 °F

Location of BoiseLocation

Historic Weather in Boise — Graph

°F

Boise temperature yesterday

Maximum temperature yesterday: 83 °F (at 12:53 AM)
Minimum temperature yesterday: 73 °F (at 9:53 PM)
Average temperature yesterday: 79 °F

Past Weeks' High & Low Weather Summary

 TemperatureHumidityPressure
High108 °F (Jun 28, 3:53 PM)65% (Jun 22, 4:53 AM)30.06 "Hg (Jun 22, 4:53 AM)
Low57 °F (Jun 22, 6:53 AM)10% (Jun 27, 6:53 PM)29.63 "Hg (Jul 4, 8:53 PM)
Average84 °F29%29.85 "Hg
* Reported Jun 21 4:53 PM — Jul 6 4:53 PM, Boise, Weather by CustomWeather, © 2015

Note: Actual official high and low records may vary slightly from our data, if they occured in-between our weather recording intervals... More about our weather records

Advertising

Boise weather history for previous 24 hours

 ConditionsComfort  
Time TempWeatherWind HumidityBarometerVisibility
4:53 PM
Mon, Jul 6
92 °FSunny.6 mph18%29.89 "Hg10 mi
3:53 PM91 °FSunny.8 mph26%29.90 "Hg10 mi
2:53 PM91 °FSunny.10 mph26%29.92 "Hg10 mi
1:53 PM88 °FSunny.No wind27%29.95 "Hg10 mi
12:53 PM87 °FSunny.6 mph28%29.96 "Hg10 mi
11:53 AM85 °FSunny.7 mph30%29.98 "Hg10 mi
10:53 AM83 °FSunny.6 mph32%29.99 "Hg10 mi
9:53 AM81 °FSunny.No wind34%29.99 "Hg10 mi
8:53 AM76 °FSunny.6 mph43%29.98 "Hg10 mi
7:53 AM71 °FClear.7 mph53%29.96 "Hg10 mi
6:53 AM68 °FClear.6 mph59%29.95 "Hg10 mi
5:53 AM69 °FClear.3 mph59%29.94 "Hg10 mi
4:53 AM70 °FPassing clouds.5 mph57%29.93 "Hg10 mi
3:53 AM70 °FPassing clouds.6 mph57%29.91 "Hg10 mi
2:53 AM71 °FClear.7 mph57%29.90 "Hg10 mi
1:53 AM71 °FClear.5 mph57%29.90 "Hg10 mi
12:53 AM72 °FClear.6 mph55%29.88 "Hg10 mi
11:53 PM
Sun, Jul 5
73 °FClear.8 mph51%29.88 "Hg10 mi
10:53 PM73 °FSunny.7 mph53%29.88 "Hg10 mi
9:53 PM73 °FSunny.6 mph51%29.86 "Hg10 mi
8:53 PM77 °FSunny.3 mph42%29.84 "Hg10 mi
7:53 PM80 °FSunny.9 mph38%29.84 "Hg10 mi
6:53 PM79 °FSunny.8 mph44%29.85 "Hg10 mi
Weather by CustomWeather, © 2015

See weather overviewHow to use our weather pages